Location: Budapest
(47.4979°N, 19.0402°E)
Time: 12:24:52
(UTC+01:00)

N. Korean satellite - Visible Passes

Search period start: 17 February 2019 00:00
Search period end: 27 February 2019 00:00
Orbit: 457 x 510 km, 97.2° (Epoch: 16 February)

Date Brightness Start Highest point End Pass type
(mag) Time Alt. Az. Time Alt. Az. Time Alt. Az.
17 Feb 9.3 05:16:50 10° NE 05:19:37 22° E 05:22:22 10° SSE visible
18 Feb 10.2 04:53:23 10° ENE 04:54:40 12° E 04:55:57 10° ESE visible
19 Feb 6.7 06:00:15 10° NNE 06:03:44 77° E 06:07:10 10° S visible
19 Feb 10.2 18:13:56 10° SW 18:15:58 14° W 18:17:59 10° WNW visible
20 Feb 8.2 05:35:41 10° NNE 05:38:56 36° E 05:42:09 10° SSE visible
20 Feb 9.3 17:47:56 10° SSW 17:51:03 26° W 17:54:08 10° NW visible
21 Feb 9.6 05:11:29 10° NE 05:14:03 19° E 05:16:34 10° SE visible
23 Feb 7.0 05:54:42 10° NNE 05:58:10 66° E 06:01:34 10° S visible
23 Feb 10.1 18:08:05 10° SW 18:10:23 16° W 18:12:40 10° NW visible
24 Feb 8.6 05:30:12 10° NNE 05:33:20 31° E 05:36:26 10° SSE visible
25 Feb 9.8 05:06:07 10° NE 05:08:25 17° E 05:10:42 10° SE visible
